Hourly Data Report for April 26, 2021

KUGAARUK CLIMATE
NUNAVUT
Current Station Operator: ECCC - MSC

68°32'15.060" N
89°47'47.020" W
15.80 m
2303094
71407
NBB

Download Data

Hourly Data (April 2021)
Hourly Data Report for April 26, 2021
TIME
LST
Temp Definition
°C
Dew Point Definition
°C
Rel Hum Definition
%
Precip. Amount Definition
mm

Wind Dir Definition
10's deg

Wind Spd Definition
km/h
Visibility Definition
km
Stn Press Definition
kPa
Hmdx Definition


Wind Chill Definition


Weather Definition


00:00 -15.9 -18.9 77 0.0 31 20   101.77   -25 LegendNANA
01:00 -16.2 -18.9 79 0.0 29 13   101.72   -24 LegendNANA
02:00 -16.5 -19.3 79 0.2 21 3   101.67   -19 LegendNANA
03:00 -16.3 -18.8 81 0.2 28 15   101.59   -25 LegendNANA
04:00 -16.4 -18.9 81 0.2 26 21   101.54   -26 LegendNANA
05:00 -16.3 -18.9 81 0.0 24 23   101.50   -26 LegendNANA
06:00 -16.0 -19.0 78 0.2 26 21   101.47   -26 LegendNANA
07:00 -15.8 -19.2 75 0.0 27 19   101.42   -25 LegendNANA
08:00 -16.1 -20.0 71 0.0 26 20   101.39   -26 LegendNANA
09:00 -16.2 -20.4 70 0.0 27 18   101.37   -25 LegendNANA
10:00 -16.0 -20.4 69 0.0 27 15   101.36   -24 LegendNANA
11:00 -15.5 -19.2 73 0.2 25 18   101.35   -24 LegendNANA
12:00 -15.0 -18.6 75 0.0 24 22   101.31   -25 LegendNANA
13:00 -14.8 -18.0 77 0.2 24 21   101.31   -24 LegendNANA
14:00 -15.1 -18.1 77 0.0 24 20   101.34   -24 LegendNANA
15:00 -15.3 -18.4 77 0.0 24 23   101.35   -25 LegendNANA
16:00 -15.3 -18.2 79 0.0 24 26   101.35   -26 LegendNANA
17:00 -15.3 -18.1 79 0.0 25 24   101.37   -25 LegendNANA
18:00 -16.0 -18.6 80 0.0 24 18   101.43   -25 LegendNANA
19:00 -16.4 -19.0 80 0.0 23 19   101.47   -26 LegendNANA
20:00 -18.0 -20.9 78 0.0 23 17   101.53   -27 LegendNANA
21:00 -18.1 -21.3 76 0.0 23 17   101.57   -27 LegendNANA
22:00 -19.3 -22.5 76 0.0 22 19   101.62   -29 LegendNANA
23:00 -19.5 -22.6 77 0.0 22 17   101.67   -29 LegendNANA

Notes on Data Quality.

Legend

  • E = Estimated
  • M = Missing
  • NA = Not Available*
  • [empty] = Indicates an unobserved value
Date modified: